When you browse on this site, cookies collect data to enhance your experience and personalize the content and advertising you see.
Visit our Privacy Policy to learn more. By continuing to use the site, you agree to this use of cookies and data.
  • In Spain
  • List of Countries
  • For 7 days
  • Water Temperature
  • Satellite Maps
  • Weather Map
  • Weather Widgets
  • user-avatar
    Login

    Hourly Weather Valutino

    Today, 19 July, Friday

    Time Temperature Precipitation Wind Pressure Humidity
    00:00 +13°C° 0.7 mm 4 mps 736 mmHg 97%
    01:00 +13°C° 0.7 mm 4 mps 736 mmHg 97%
    02:00 +13°C° 0.7 mm 4 mps 736 mmHg 97%
    03:00 +14°C° 0.5 mm 4 mps 736 mmHg 97%
    04:00 +14°C° 0.5 mm 4 mps 737 mmHg 98%
    05:00 +14°C° 0.5 mm 4 mps 737 mmHg 98%
    06:00 +14°C° 0.2 mm 4 mps 737 mmHg 97%
    07:00 +14°C° 0.2 mm 4 mps 738 mmHg 96%
    08:00 +15°C° 0.2 mm 4 mps 738 mmHg 95%
    09:00 +15°C° 0.4 mm 5 mps 738 mmHg 93%
    10:00 +16°C° 0.4 mm 5 mps 739 mmHg 92%
    11:00 +16°C° 0.4 mm 6 mps 739 mmHg 90%
    12:00 +16°C° 0.2 mm 6 mps 739 mmHg 88%
    13:00 +16°C° 0.2 mm 6 mps 740 mmHg 87%
    14:00 +16°C° 0.2 mm 6 mps 740 mmHg 85%
    15:00 +16°C° 0 mm 6 mps 740 mmHg 82%
    16:00 +17°C° 0 mm 6 mps 741 mmHg 80%
    17:00 +17°C° 0 mm 6 mps 741 mmHg 77%
    18:00 +16°C° 0 mm 5 mps 741 mmHg 79%
    19:00 +17°C° 0 mm 4 mps 741 mmHg 81%
    20:00 +16°C° 0 mm 3 mps 742 mmHg 83%
    21:00 +14°C° 0 mm 3 mps 742 mmHg 85%
    22:00 +14°C° 0 mm 3 mps 742 mmHg 86%
    23:00 +13°C° 0 mm 4 mps 742 mmHg 88%

    Tomorrow, 20 July, Saturday

    Time Temperature Precipitation Wind Pressure Humidity
    00:00 +13°C° 0 mm 3 mps 743 mmHg 90%
    01:00 +12°C° 0 mm 3 mps 743 mmHg 92%
    02:00 +12°C° 0 mm 3 mps 743 mmHg 94%
    03:00 +12°C° 0 mm 3 mps 743 mmHg 94%
    04:00 +12°C° 0 mm 3 mps 743 mmHg 94%
    05:00 +12°C° 0 mm 3 mps 744 mmHg 93%
    06:00 +13°C° 0 mm 3 mps 744 mmHg 89%
    07:00 +16°C° 0 mm 3 mps 744 mmHg 84%
    08:00 +17°C° 0 mm 3 mps 745 mmHg 79%
    09:00 +19°C° 0.1 mm 4 mps 745 mmHg 74%
    10:00 +20°C° 0.1 mm 4 mps 745 mmHg 69%
    11:00 +22°C° 0.1 mm 5 mps 745 mmHg 63%
    12:00 +22°C° 0 mm 5 mps 746 mmHg 62%
    13:00 +22°C° 0 mm 5 mps 746 mmHg 60%
    14:00 +23°C° 0 mm 5 mps 746 mmHg 58%
    15:00 +22°C° 0 mm 5 mps 746 mmHg 61%
    16:00 +22°C° 0 mm 4 mps 746 mmHg 63%
    17:00 +22°C° 0 mm 4 mps 746 mmHg 66%
    18:00 +20°C° 0 mm 3 mps 746 mmHg 71%
    19:00 +18°C° 0 mm 3 mps 746 mmHg 77%
    20:00 +17°C° 0 mm 3 mps 746 mmHg 82%
    21:00 +16°C° 0 mm 3 mps 747 mmHg 85%
    22:00 +14°C° 0 mm 3 mps 747 mmHg 87%
    23:00 +13°C° 0 mm 3 mps 747 mmHg 89%

    Day after tomorrow, 21 July, Sunday

    Time Temperature Precipitation Wind Pressure Humidity
    00:00 +14°C° 0 mm 2 mps 747 mmHg 91%
    01:00 +14°C° 0 mm 2 mps 747 mmHg 93%
    02:00 +13°C° 0 mm 2 mps 747 mmHg 94%
    03:00 +13°C° 0 mm 2 mps 747 mmHg 95%
    04:00 +14°C° 0 mm 2 mps 748 mmHg 95%
    05:00 +14°C° 0 mm 1 mps 748 mmHg 95%
    06:00 +15°C° 0 mm 1 mps 748 mmHg 88%
    07:00 +18°C° 0 mm 1 mps 748 mmHg 82%
    08:00 +20°C° 0 mm 1 mps 748 mmHg 76%
    09:00 +21°C° 0 mm 1 mps 748 mmHg 71%
    10:00 +23°C° 0 mm 2 mps 748 mmHg 66%
    11:00 +24°C° 0 mm 2 mps 748 mmHg 60%
    12:00 +24°C° 0 mm 2 mps 748 mmHg 59%
    13:00 +25°C° 0 mm 2 mps 748 mmHg 58%
    14:00 +25°C° 0 mm 2 mps 748 mmHg 57%
    15:00 +25°C° 0 mm 2 mps 748 mmHg 60%
    16:00 +25°C° 0 mm 2 mps 748 mmHg 62%
    17:00 +24°C° 0 mm 2 mps 747 mmHg 65%
    18:00 +23°C° 0 mm 2 mps 747 mmHg 71%
    19:00 +21°C° 0 mm 1 mps 747 mmHg 78%
    20:00 +19°C° 0 mm 1 mps 747 mmHg 84%
    21:00 +18°C° 0 mm 1 mps 747 mmHg 85%
    22:00 +16°C° 0 mm 0 mps 747 mmHg 86%
    23:00 +15°C° 0 mm 0 mps 747 mmHg 87%

    22 July, Monday

    Time Temperature Precipitation Wind Pressure Humidity
    00:00 +15°C° 0 mm 0 mps 747 mmHg 88%
    01:00 +15°C° 0 mm 1 mps 747 mmHg 89%
    02:00 +15°C° 0 mm 1 mps 747 mmHg 90%
    03:00 +15°C° 0 mm 1 mps 746 mmHg 90%
    04:00 +15°C° 0 mm 1 mps 746 mmHg 90%
    05:00 +16°C° 0 mm 1 mps 746 mmHg 91%
    06:00 +17°C° 0 mm 2 mps 746 mmHg 87%
    07:00 +19°C° 0 mm 2 mps 746 mmHg 83%
    08:00 +20°C° 0 mm 2 mps 746 mmHg 80%
    09:00 +21°C° 0.7 mm 2 mps 745 mmHg 80%
    10:00 +21°C° 0.7 mm 3 mps 745 mmHg 81%
    11:00 +21°C° 0.7 mm 3 mps 745 mmHg 82%
    12:00 +21°C° 0.4 mm 2 mps 745 mmHg 85%
    13:00 +20°C° 0.4 mm 2 mps 745 mmHg 89%
    14:00 +20°C° 0.4 mm 1 mps 744 mmHg 93%
    15:00 +19°C° 0.5 mm 1 mps 744 mmHg 94%
    16:00 +19°C° 0.5 mm 1 mps 744 mmHg 95%
    17:00 +18°C° 0.5 mm 2 mps 744 mmHg 96%
    18:00 +17°C° 0.1 mm 2 mps 744 mmHg 96%
    19:00 +17°C° 0.1 mm 2 mps 744 mmHg 96%
    20:00 +17°C° 0.1 mm 2 mps 743 mmHg 97%
    21:00 +17°C° 0.1 mm 2 mps 743 mmHg 97%
    22:00 +17°C° 0.1 mm 2 mps 743 mmHg 97%
    23:00 +16°C° 0.1 mm 2 mps 743 mmHg 97%

    23 July, Tuesday

    Time Temperature Precipitation Wind Pressure Humidity
    00:00 +16°C° 0.1 mm 2 mps 743 mmHg 98%
    01:00 +16°C° 0.1 mm 2 mps 743 mmHg 98%
    02:00 +16°C° 0.1 mm 2 mps 742 mmHg 98%
    03:00 +16°C° 0.2 mm 2 mps 742 mmHg 98%
    04:00 +16°C° 0.2 mm 2 mps 742 mmHg 98%
    05:00 +16°C° 0.2 mm 3 mps 742 mmHg 98%
    06:00 +16°C° 0.2 mm 3 mps 742 mmHg 97%
    07:00 +16°C° 0.2 mm 3 mps 743 mmHg 97%
    08:00 +15°C° 0.2 mm 4 mps 743 mmHg 96%
    09:00 +16°C° 0.1 mm 3 mps 743 mmHg 95%
    10:00 +17°C° 0.1 mm 3 mps 743 mmHg 93%
    11:00 +17°C° 0.1 mm 3 mps 743 mmHg 92%
    12:00 +18°C° 0 mm 2 mps 743 mmHg 88%
    13:00 +18°C° 0 mm 2 mps 744 mmHg 85%
    14:00 +19°C° 0 mm 2 mps 744 mmHg 82%
    15:00 +20°C° 0.1 mm 2 mps 744 mmHg 79%
    16:00 +21°C° 0.1 mm 2 mps 744 mmHg 77%
    17:00 +21°C° 0.1 mm 2 mps 744 mmHg 75%
    18:00 +21°C° 0.1 mm 1 mps 744 mmHg 78%
    19:00 +20°C° 0.1 mm 1 mps 744 mmHg 81%
    20:00 +18°C° 0.1 mm 1 mps 744 mmHg 85%
    21:00 +16°C° 0 mm 1 mps 744 mmHg 86%
    22:00 +16°C° 0 mm 1 mps 744 mmHg 87%
    23:00 +15°C° 0 mm 1 mps 744 mmHg 89%

    24 July, Wednesday

    Time Temperature Precipitation Wind Pressure Humidity
    00:00 +14°C° 0 mm 2 mps 744 mmHg 90%
    01:00 +14°C° 0 mm 2 mps 744 mmHg 91%
    02:00 +13°C° 0 mm 2 mps 744 mmHg 92%
    03:00 +13°C° 0 mm 2 mps 744 mmHg 92%
    04:00 +12°C° 0 mm 3 mps 744 mmHg 92%
    05:00 +12°C° 0 mm 3 mps 744 mmHg 93%
    06:00 +13°C° 0 mm 3 mps 744 mmHg 89%
    07:00 +14°C° 0 mm 3 mps 744 mmHg 85%
    08:00 +16°C° 0 mm 3 mps 744 mmHg 81%
    09:00 +17°C° 0 mm 3 mps 744 mmHg 76%
    10:00 +19°C° 0 mm 3 mps 744 mmHg 72%
    11:00 +20°C° 0 mm 3 mps 744 mmHg 67%
    12:00 +21°C° 0.3 mm 3 mps 744 mmHg 68%
    13:00 +21°C° 0.3 mm 3 mps 744 mmHg 69%
    14:00 +21°C° 0.3 mm 3 mps 743 mmHg 71%
    15:00 +21°C° 0.7 mm 3 mps 743 mmHg 74%
    16:00 +21°C° 0.7 mm 3 mps 743 mmHg 78%
    17:00 +20°C° 0.7 mm 3 mps 743 mmHg 81%
    18:00 +19°C° 0.2 mm 3 mps 743 mmHg 85%
    19:00 +18°C° 0.2 mm 3 mps 743 mmHg 88%
    20:00 +17°C° 0.2 mm 3 mps 743 mmHg 91%
    21:00 +17°C° 0.1 mm 3 mps 743 mmHg 92%
    22:00 +16°C° 0.1 mm 3 mps 743 mmHg 94%
    23:00 +16°C° 0.1 mm 3 mps 743 mmHg 95%
    Show more